Find Starlink 5873

NORAD ID: 56490 Int'l Des: 2023-064 Owner: SPXS Country: US Constellation: starlink operational
LEOCIRCULAR

实时位置

正在加载3D地球...

关于 Starlink 5873

正在加载描述...

即将过境

Passes for default location (London). Set your location on the main map for personalized predictions.

高度历史

Loading altitude history...

两行轨道根数

1 56490U 23064AU 26133.47937111 -.00000470 00000-0 -31614-4 0 9999
2 56490 69.9985 301.2444 0002774 271.7524 88.3317 14.98335436165938
Epoch: May 13, 2026 • Age: 6 hours

当前状态

高度 578.8 km
速度 7.57 km/s
星下点 -21.01°S, 1°W
发射日期 May 10, 2023
运行时间 3 years
类型 internet

技术详情

分类 Payload
质量 305.00 kg
干质量 290.00 kg
总质量 305.00 kg
长度 0.20 m
直径 2.80 m
跨度 9.00 m
形状 Box + pan
制造商 SPXS
平台类型 Starlink
阶段状态 In Orbit
所有者/国家 SPXS/US

Most Searched